Wind_Speed
16 22 11 4 2 2 1 3 4 8 11 4 11 5 10 11 11 3 21 23 26 26 28 28 31 31 30 28 27 25 23 19 16 14 15 15 14 13 12 12 11 12 13 13 11 10 12 11 11
8 15 3 3 3 4 5 7 7 5 2 8 8 5 6 12 6 10 24 28 31 30 32 33 31 30 28 26 26 24 21 18 16 15 15 14 14 13 12 12 12 13 14 13 12 11 12 12 10
12 17 4 2 3 4 4 8 10 2 8 8 9 8 6 7 12 26 26 30 30 31 31 30 28 27 26 25 24 23 19 17 15 14 13 13 13 12 12 13 12 13 13 12 12 12 13 11 10
18 13 10 4 4 9 10 10 5 5 8 8 8 5 8 18 25 25 28 29 29 29 28 27 26 25 24 23 23 21 18 16 14 13 13 11 11 10 12 12 12 12 12 10 11 11 11 11 14
13 9 12 7 5 14 13 6 3 4 8 12 6 9 22 25 23 24 27 26 26 27 25 24 23 22 22 21 21 19 17 15 13 11 11 9 9 9 10 11 10 9 10 10 10 10 11 11 12
10 10 6 4 7 8 8 8 9 2 5 14 11 17 24 22 22 24 24 24 24 22 23 22 22 21 21 20 19 18 16 14 12 10 9 8 7 8 9 9 8 7 9 9 8 7 8 9 8
10 14 9 1 8 11 9 9 6 7 6 10 13 17 20 23 24 23 23 23 22 21 20 20 20 21 20 19 18 17 15 14 11 9 7 5 5 7 7 6 7 7 8 8 8 7 8 7 8
7 12 7 4 9 9 12 9 9 6 9 12 11 14 16 26 26 24 23 22 20 19 19 19 19 20 19 19 18 16 15 13 10 8 6 4 5 5 4 3 5 5 5 5 6 6 5 5 7
7 11 1 1 3 7 13 13 12 5 4 8 11 7 14 25 25 25 23 23 22 21 20 20 19 19 18 17 16 15 14 12 10 7 5 5 6 6 4 2 2 3 2 2 3 4 5 5 8
16 11 5 7 2 8 9 11 6 7 4 6 8 5 18 21 22 22 22 21 21 21 21 21 21 19 18 17 16 15 13 11 9 6 5 5 4 3 2 2 2 3 5 2 5 2 7 9 8
15 12 4 2 10 9 11 16 11 6 8 6 1 2 14 19 20 21 20 18 18 20 21 21 20 19 18 17 16 15 13 11 9 7 6 4 3 4 2 0 1 4 5 6 6 9 10 9 6
19 10 7 2 8 16 13 15 16 6 5 4 3 5 10 14 18 20 18 18 20 20 20 20 20 19 19 18 16 15 13 11 9 7 6 4 4 2 5 2 2 6 6 6 7 6 9 11 8
23 14 15 11 9 22 24 20 16 7 7 4 3 3 4 10 15 17 16 18 18 19 20 19 18 18 18 16 15 14 13 11 10 8 6 4 4 3 3 1 2 5 6 8 8 10 9 10 9
24 18 17 18 16 21 24 24 20 15 13 11 2 3 5 10 16 20 21 18 17 19 20 20 19 18 17 14 13 13 13 11 9 8 7 4 6 4 1 3 5 7 8 6 10 11 9 10 10
27 27 24 19 10 18 15 32 29 20 15 15 7 6 7 12 15 18 16 18 17 18 19 19 19 18 16 15 14 12 11 10 9 6 4 6 4 4 3 4 6 7 8 12 11 12 12 11 10
29 28 26 15 13 12 30 35 27 26 19 16 14 11 8 13 12 17 17 18 19 19 20 20 19 17 16 14 13 11 8 6 7 6 4 3 4 4 5 4 7 8 9 10 11 11 12 13 11
32 29 25 21 11 15 30 35 33 30 22 16 17 16 8 11 17 19 15 18 20 22 22 22 21 19 17 15 13 11 10 7 6 7 6 4 4 4 5 5 7 8 10 9 9 8 9 11 11
30 29 28 25 5 7 25 34 37 39 25 18 17 19 10 11 14 16 17 20 23 24 23 21 20 19 18 17 14 12 11 9 6 6 6 7 7 7 7 6 7 7 7 4 7 8 11 13 13
33 23 29 29 17 9 9 31 33 37 27 21 22 25 18 4 11 16 18 21 23 23 24 22 21 19 18 15 14 11 7 6 5 5 5 7 10 10 9 9 5 3 4 6 8 10 12 12 13
35 32 33 31 28 18 14 16 29 42 31 19 17 24 23 14 11 17 21 21 22 22 23 23 20 20 17 14 13 12 10 9 9 10 10 10 12 13 12 8 3 6 6 8 9 10 12 12 11
36 37 37 33 25 17 18 23 21 40 34 29 28 23 23 18 16 7 21 25 24 24 24 21 19 19 18 16 16 14 15 14 11 8 9 10 13 14 8 4 9 9 9 8 9 11 14 11 9
36 40 36 35 27 20 11 5 25 37 42 39 32 28 30 27 23 20 18 16 25 26 26 24 22 22 20 19 18 17 16 15 11 9 10 10 13 14 7 11 12 11 9 8 11 14 20 16 9
41 37 35 33 26 27 32 13 17 32 43 43 34 32 29 29 29 22 17 20 12 23 25 25 24 23 22 20 19 19 18 15 16 16 14 11 8 11 13 15 15 12 9 8 8 9 15 23 12
38 29 26 31 28 19 39 23 33 31 40 38 35 36 31 27 30 25 19 23 21 16 19 27 26 25 24 23 21 20 20 18 19 18 15 13 10 12 16 17 16 13 10 7 5 3 9 17 21
30 30 11 8 10 12 31 28 35 29 28 33 33 28 32 33 26 27 22 25 29 24 20 21 26 30 29 26 25 22 21 20 21 19 16 15 13 15 17 19 17 13 10 7 3 0 6 10 15
41 37 14 8 5 10 25 19 31 34 28 26 34 30 26 35 31 27 30 25 23 23 22 21 23 24 25 26 29 26 24 23 22 21 18 16 16 19 21 20 18 14 12 10 7 4 5 7 12
32 41 41 29 22 7 11 27 43 40 27 25 36 35 33 35 34 31 23 28 26 26 25 22 19 21 24 24 23 27 28 26 24 22 19 17 20 24 27 23 19 16 14 12 12 11 10 11 13
41 37 23 26 11 13 9 24 22 29 38 34 33 28 37 35 35 34 34 27 28 26 26 23 18 18 20 20 22 23 29 26 25 25 23 20 24 27 29 25 21 17 16 14 14 13 14 14 16
49 49 36 35 31 9 9 20 36 35 29 31 36 29 23 29 35 38 39 40 28 30 30 28 24 22 22 24 22 23 26 28 27 27 23 22 27 31 29 24 22 19 16 16 15 16 17 16 19
41 52 45 27 27 36 28 26 9 21 47 42 35 31 30 33 34 38 42 37 31 30 29 30 25 26 25 26 24 25 23 27 29 28 24 25 29 34 29 27 25 22 19 19 19 19 20 20 21
Wind_Direction
15 335 336 6 341 316 300 189 148 153 144 131 168 155 178 193 157 185 152 143 136 141 140 146 142 139 139 139 138 136 133 131 123 111 103 101 94 87 83 80 78 77 74 70 66 61 64 67 69
11 346 315 321 25 11 302 159 143 163 237 175 173 172 164 174 188 168 148 136 136 135 134 137 141 141 143 143 143 139 139 133 122 110 105 95 88 82 84 85 81 80 77 77 72 63 64 71 74
88 58 354 350 16 18 166 156 156 191 175 187 189 195 214 211 148 145 141 136 137 138 137 138 141 144 148 148 144 144 141 132 123 112 104 95 86 83 85 84 84 84 82 82 81 76 71 73 78
77 54 45 32 105 128 145 143 172 156 165 179 191 189 193 139 139 144 141 138 136 140 139 141 144 147 150 149 148 145 141 137 128 117 103 94 83 83 85 87 84 86 92 95 85 80 82 71 64
35 15 26 7 150 138 87 148 199 126 152 162 183 153 141 136 144 142 143 144 140 144 143 144 145 146 148 149 149 147 147 143 133 113 104 94 85 91 90 89 85 90 89 85 80 77 73 70 64
335 358 8 344 179 205 142 147 167 143 176 180 170 157 145 145 149 146 149 146 148 148 147 150 149 147 148 152 152 152 149 144 137 123 114 101 90 93 88 85 77 76 81 77 73 66 61 56 50
316 335 347 173 186 197 167 141 108 70 94 182 186 177 158 154 157 156 155 154 155 157 156 156 154 153 154 155 155 153 150 148 146 139 128 114 98 88 72 75 75 62 67 75 69 52 38 24 15
305 321 321 104 166 157 161 132 128 77 91 125 175 196 178 164 164 165 164 164 165 164 161 161 160 156 155 155 154 156 155 154 156 147 139 114 89 79 74 58 69 66 53 46 54 33 29 22 6
251 287 348 113 146 211 180 148 152 103 39 115 141 201 194 171 172 176 177 174 172 168 165 164 162 160 159 158 156 161 159 162 161 157 141 103 90 97 99 79 51 70 42 33 39 30 21 345 333
237 259 122 106 5 265 203 193 133 128 136 174 156 159 185 181 182 187 189 185 179 173 166 164 165 165 164 164 162 164 164 168 170 166 139 129 114 128 106 340 105 81 30 329 336 19 327 326 318
228 212 195 138 333 267 248 197 206 160 92 110 115 327 192 188 184 189 189 187 181 174 173 167 168 170 171 170 170 171 173 177 178 177 165 169 147 86 223 157 90 10 25 344 324 329 338 335 335
246 206 239 322 353 262 253 213 203 193 57 99 171 11 195 191 186 183 184 183 182 178 176 173 173 174 177 179 177 180 182 189 188 190 185 170 177 172 130 129 10 357 350 322 330 324 350 2 13
242 227 258 283 278 278 239 232 240 208 195 173 157 285 193 205 186 178 182 186 183 180 180 175 177 178 184 184 186 186 189 200 205 201 197 186 203 210 212 232 326 349 332 325 338 344 339 345 358
245 254 260 276 277 244 227 218 222 217 208 212 111 252 197 192 192 186 186 188 185 186 186 179 180 186 187 191 195 194 200 208 215 227 215 219 225 229 245 315 323 329 327 336 351 334 331 331 340
246 253 255 255 258 215 232 220 230 234 224 219 209 224 207 192 202 196 189 183 184 185 189 184 186 189 189 190 201 208 212 216 213 239 213 246 216 253 254 299 307 322 324 327 325 334 332 326 330
240 248 259 238 217 219 216 223 229 226 223 224 222 228 215 200 203 184 191 190 183 192 186 184 191 188 186 188 194 201 213 217 208 217 225 239 253 250 275 287 294 307 324 333 325 330 327 330 323
237 241 246 234 242 257 209 224 227 220 226 231 230 228 206 213 197 195 189 185 180 190 192 190 193 196 192 191 195 198 210 213 208 216 225 236 245 227 247 269 293 312 327 329 341 352 352 356 352
224 234 239 240 225 248 216 228 232 219 226 238 237 227 211 219 205 193 186 182 183 192 195 195 195 196 197 196 201 210 217 218 217 213 209 217 227 230 260 268 286 310 334 36 44 34 27 18 14
230 236 241 231 240 216 236 231 231 233 224 221 232 232 223 191 199 204 194 194 196 200 199 198 199 196 201 203 211 223 235 236 221 238 248 235 224 232 252 270 285 319 95 68 53 40 32 25 18
227 235 236 234 255 259 267 281 251 239 236 257 256 239 233 205 194 213 209 203 206 204 202 201 204 203 210 215 222 231 240 238 236 236 239 237 237 238 247 261 271 135 112 81 63 49 35 22 14
223 228 231 236 247 252 282 293 230 233 227 229 236 249 250 239 234 229 223 212 206 208 209 209 213 215 218 226 230 234 239 244 250 258 254 260 250 237 223 184 145 139 121 97 77 58 36 22 6
230 223 233 246 262 278 285 284 227 220 219 226 232 236 244 242 239 239 246 237 221 211 209 211 217 222 223 228 233 241 248 253 260 250 243 249 252 220 186 161 151 144 132 111 90 58 32 24 22
230 227 232 246 264 273 265 259 248 225 224 226 231 234 243 249 249 257 259 258 265 232 220 216 215 220 224 227 232 236 238 244 244 240 245 243 235 192 165 164 158 156 140 110 108 51 41 47 62
224 231 240 248 257 254 253 241 253 239 232 241 249 243 242 250 253 250 250 257 257 254 240 229 224 225 227 228 234 238 241 242 242 244 244 237 222 192 170 168 169 164 147 122 97 57 41 40 45
217 224 236 261 225 242 247 248 242 252 252 252 246 253 251 245 238 244 234 250 250 245 239 233 228 229 231 232 236 239 238 242 246 240 234 226 212 189 180 178 173 168 170 172 178 25 18 20 23
223 216 200 200 193 244 242 228 243 248 241 248 248 261 249 244 237 244 237 225 232 239 239 233 235 230 227 230 236 238 241 242 243 241 228 214 196 184 188 186 180 178 186 201 224 266 317 341 350
216 222 228 245 261 278 248 246 253 247 233 236 246 248 243 242 245 242 225 225 223 227 228 233 238 237 235 236 242 240 238 241 243 238 226 210 190 185 188 190 190 189 203 217 235 252 281 307 322
224 222 213 219 224 244 241 242 239 235 237 232 248 246 245 246 246 247 233 233 223 224 231 234 234 237 243 239 241 248 240 239 239 233 223 211 192 189 196 191 192 198 214 226 244 259 277 296 305
218 227 227 232 228 228 248 254 249 239 232 237 244 250 255 255 256 252 244 242 239 238 236 234 236 235 234 230 232 240 239 233 232 228 219 213 197 192 194 195 202 211 221 235 248 263 276 289 296
229 223 222 218 218 230 242 234 39 237 243 236 235 238 248 268 271 251 241 235 240 239 239 238 234 234 235 236 235 237 235 228 225 222 214 211 202 198 200 201 211 220 229 242 254 265 276 283 290
Height
3159 3156 3155 3154 3159 3155 3154 3155 3154 3154 3154 3154 3155 3155 3156 3157 3157 3163 3161 3162 3163 3166 3168 3171 3175 3177 3180 3184 3186 3188 3191 3194 3196 3197 3198 3199 3199 3199 3199 3199 3199 3198 3198 3197 3198 3198 3196 3196 3197
3158 3154 3156 3155 3157 3154 3154 3153 3154 3156 3156 3155 3156 3156 3157 3158 3158 3158 3162 3164 3166 3170 3172 3174 3177 3181 3183 3186 3189 3191 3194 3196 3198 3199 3200 3200 3201 3201 3201 3200 3200 3200 3200 3200 3201 3200 3199 3199 3198
3155 3157 3156 3156 3156 3156 3154 3155 3155 3156 3156 3157 3158 3158 3158 3159 3158 3162 3166 3167 3170 3172 3175 3178 3181 3183 3186 3189 3191 3194 3197 3199 3200 3201 3201 3202 3202 3203 3202 3202 3202 3202 3203 3203 3202 3202 3201 3200 3200
3162 3162 3161 3158 3157 3155 3154 3155 3155 3155 3155 3157 3159 3160 3159 3159 3162 3166 3168 3171 3173 3176 3178 3181 3183 3186 3189 3191 3194 3196 3198 3200 3201 3202 3203 3204 3205 3204 3203 3204 3203 3204 3204 3203 3203 3203 3202 3201 3202
3162 3162 3162 3156 3157 3155 3156 3157 3158 3157 3156 3157 3160 3160 3161 3163 3166 3169 3171 3174 3176 3179 3181 3183 3186 3188 3191 3193 3195 3197 3199 3201 3203 3204 3204 3206 3205 3205 3205 3205 3205 3205 3205 3206 3205 3205 3205 3204 3204
3162 3162 3161 3159 3159 3158 3158 3158 3159 3159 3157 3159 3160 3163 3164 3166 3169 3171 3174 3176 3179 3182 3183 3185 3187 3190 3192 3195 3196 3199 3201 3203 3205 3205 3206 3207 3206 3206 3206 3207 3207 3208 3207 3207 3206 3206 3205 3205 3205
3161 3161 3160 3159 3159 3159 3159 3159 3160 3160 3159 3160 3163 3165 3166 3167 3170 3173 3175 3178 3180 3183 3185 3187 3189 3191 3193 3196 3198 3200 3203 3205 3205 3206 3207 3208 3208 3208 3209 3208 3209 3209 3209 3209 3207 3207 3207 3206 3205
3162 3161 3160 3160 3159 3161 3161 3161 3161 3161 3161 3162 3165 3166 3166 3167 3170 3173 3176 3178 3181 3183 3186 3188 3190 3192 3194 3196 3199 3201 3203 3205 3206 3207 3208 3210 3210 3210 3210 3210 3210 3210 3210 3210 3209 3208 3208 3206 3205
3162 3161 3159 3160 3160 3161 3162 3161 3162 3163 3164 3164 3166 3167 3170 3168 3170 3173 3175 3177 3180 3183 3186 3188 3191 3193 3195 3198 3200 3202 3204 3205 3207 3208 3209 3211 3211 3210 3210 3210 3211 3211 3210 3211 3210 3209 3208 3207 3205
3161 3160 3158 3160 3162 3162 3162 3163 3162 3162 3164 3166 3167 3167 3168 3169 3170 3172 3175 3178 3180 3183 3185 3188 3191 3194 3196 3199 3201 3203 3205 3206 3208 3209 3210 3211 3211 3211 3211 3210 3211 3211 3211 3211 3210 3209 3209 3206 3205
3158 3156 3158 3158 3161 3161 3161 3162 3163 3163 3165 3167 3168 3167 3167 3169 3171 3173 3176 3179 3182 3184 3186 3188 3191 3194 3197 3200 3201 3203 3205 3207 3208 3209 3210 3211 3212 3212 3212 3211 3211 3212 3211 3212 3212 3211 3208 3206 3205
3155 3154 3157 3156 3160 3160 3158 3161 3161 3164 3166 3167 3168 3167 3167 3168 3171 3173 3176 3179 3180 3183 3186 3189 3192 3195 3197 3199 3201 3203 3205 3206 3208 3209 3210 3211 3212 3212 3213 3212 3212 3212 3212 3211 3211 3210 3208 3206 3204
3153 3154 3157 3158 3160 3159 3160 3158 3161 3162 3164 3164 3166 3166 3167 3168 3171 3173 3176 3178 3180 3183 3186 3189 3192 3194 3196 3199 3201 3203 3204 3206 3208 3209 3210 3211 3212 3212 3212 3212 3213 3212 3212 3212 3210 3208 3206 3206 3204
3152 3154 3155 3156 3156 3157 3157 3158 3160 3163 3162 3163 3164 3166 3166 3168 3170 3172 3174 3176 3180 3183 3186 3189 3192 3194 3196 3198 3201 3203 3204 3205 3206 3208 3210 3211 3212 3211 3211 3212 3212 3212 3212 3212 3210 3208 3206 3204 3203
3148 3149 3151 3152 3154 3154 3158 3158 3153 3160 3160 3162 3163 3165 3166 3167 3168 3171 3174 3176 3179 3183 3185 3188 3191 3193 3195 3197 3200 3202 3203 3204 3205 3206 3208 3209 3210 3211 3210 3211 3212 3213 3212 3211 3210 3207 3205 3203 3201
3144 3146 3147 3149 3151 3152 3152 3149 3153 3156 3158 3159 3162 3163 3164 3166 3168 3170 3173 3175 3179 3181 3184 3187 3190 3193 3194 3196 3198 3200 3203 3203 3204 3206 3207 3208 3209 3210 3210 3211 3211 3212 3212 3210 3209 3207 3205 3203 3201
3139 3141 3143 3144 3147 3147 3147 3147 3149 3153 3156 3157 3159 3162 3163 3165 3166 3169 3171 3173 3176 3180 3183 3185 3188 3191 3193 3195 3197 3199 3201 3203 3204 3205 3206 3206 3207 3208 3209 3211 3211 3211 3211 3210 3209 3207 3205 3203 3201
3134 3137 3140 3141 3145 3145 3145 3144 3146 3149 3151 3153 3156 3159 3161 3163 3165 3168 3170 3173 3175 3178 3181 3184 3186 3189 3191 3193 3195 3197 3199 3201 3203 3204 3204 3205 3206 3207 3208 3210 3211 3211 3211 3210 3209 3208 3206 3203 3201
3132 3134 3136 3136 3142 3143 3145 3145 3143 3146 3149 3152 3152 3155 3159 3162 3164 3166 3169 3172 3174 3176 3178 3182 3184 3186 3188 3190 3192 3194 3196 3198 3200 3201 3202 3203 3205 3206 3207 3209 3209 3210 3210 3210 3209 3208 3206 3203 3201
3127 3129 3130 3132 3136 3140 3140 3139 3137 3140 3142 3145 3147 3149 3154 3159 3161 3163 3166 3168 3171 3175 3177 3179 3182 3183 3185 3187 3190 3191 3194 3196 3197 3198 3200 3201 3203 3204 3205 3207 3208 3209 3209 3209 3209 3208 3206 3204 3201
3121 3123 3126 3130 3131 3133 3134 3131 3130 3135 3141 3143 3145 3148 3151 3153 3156 3159 3163 3164 3169 3171 3174 3178 3180 3181 3182 3185 3187 3189 3190 3192 3194 3196 3197 3199 3200 3201 3203 3204 3206 3208 3208 3209 3208 3207 3206 3204 3201
3115 3120 3125 3126 3129 3130 3132 3131 3126 3130 3133 3136 3139 3142 3143 3147 3151 3155 3158 3160 3164 3168 3172 3174 3176 3178 3179 3181 3183 3186 3189 3191 3193 3194 3195 3195 3196 3198 3200 3203 3205 3207 3208 3208 3208 3207 3205 3202 3201
3109 3120 3123 3124 3125 3127 3126 3131 3126 3126 3127 3131 3134 3138 3140 3142 3146 3150 3152 3155 3160 3165 3167 3170 3172 3175 3176 3178 3180 3183 3185 3188 3190 3191 3192 3194 3195 3196 3199 3202 3204 3206 3206 3207 3207 3207 3206 3203 3203
3111 3116 3120 3121 3122 3119 3116 3123 3117 3120 3122 3125 3129 3132 3136 3139 3142 3146 3149 3152 3155 3159 3162 3165 3167 3169 3171 3175 3178 3180 3183 3185 3186 3188 3189 3191 3194 3195 3198 3200 3202 3204 3205 3206 3207 3207 3206 3205 3204
3105 3112 3116 3115 3114 3102 3111 3113 3107 3112 3116 3118 3120 3123 3127 3133 3137 3140 3144 3146 3148 3151 3155 3159 3161 3164 3167 3169 3173 3176 3179 3181 3183 3185 3187 3188 3190 3193 3196 3198 3200 3201 3203 3204 3206 3206 3205 3204 3203
3095 3100 3101 3108 3106 3099 3104 3095 3093 3105 3112 3114 3116 3119 3124 3127 3131 3134 3138 3141 3144 3146 3150 3154 3157 3159 3161 3164 3168 3172 3175 3177 3178 3181 3183 3185 3187 3191 3194 3196 3198 3199 3201 3202 3203 3204 3204 3203 3203
3089 3090 3094 3099 3097 3098 3091 3089 3090 3100 3105 3109 3112 3115 3119 3121 3124 3128 3131 3135 3139 3142 3144 3148 3153 3156 3158 3160 3163 3166 3169 3172 3174 3177 3180 3182 3184 3187 3191 3193 3195 3197 3198 3200 3201 3201 3201 3201 3201
3079 3087 3092 3090 3094 3096 3082 3080 3082 3090 3097 3103 3105 3109 3112 3115 3118 3121 3126 3129 3133 3136 3139 3143 3148 3152 3155 3156 3158 3160 3164 3167 3170 3172 3175 3178 3181 3183 3186 3189 3192 3193 3195 3196 3197 3199 3199 3198 3198
3069 3072 3076 3081 3082 3079 3079 3070 3078 3085 3092 3097 3100 3104 3107 3109 3112 3114 3119 3123 3127 3131 3132 3136 3142 3147 3149 3150 3154 3155 3158 3161 3163 3166 3170 3174 3177 3179 3182 3185 3188 3190 3191 3192 3193 3195 3195 3195 3195
3060 3062 3068 3071 3066 3066 3071 3066 3071 3073 3083 3089 3093 3097 3101 3102 3103 3104 3111 3116 3120 3125 3126 3129 3135 3140 3144 3146 3149 3150 3153 3155 3156 3160 3165 3169 3174 3176 3178 3181 3183 3185 3186 3188 3190 3191 3192 3192 3191